sat.trackr.live / text

‹ back to catalog

ZIYUAN 3-03 (ZY 3-03)

NORAD 45939 · 2020-051A

PAYLOAD ACTIVE UNKNOWN

§ Identity

Operator
Country
PRC
Launch date
2020-07-25
Launch site
TAISC
Launch vehicle
Mass (kg)
RCS (m²)

External: N2YO · Heavens-Above · Gunter

§ Orbital elements

Epoch: 2026-05-25T03:57:01.288800Z

Period
94.65 min
Inclination
97.2841°
Eccentricity
0.0005398
Mean motion
15.21314792 rev/d
Perigee alt
498.2 km
Apogee alt
505.6 km
Semi-major
6,880.0 km
B*
1.3452e-4
RAAN
213.6318°
Arg perigee
43.0947°
Mean anomaly
317.0711°
Rev number
32,384

§ Raw data

ZIYUAN 3-03 (ZY 3-03)1 45939U 20051A   26145.16459825  .00002944  00000+0  13452-3 0  99922 45939  97.2841 213.6318 0005398  43.0947 317.0711 15.21314792323844

JSON: /api/v1/satellites/45939 · /tle

For live sub-satellite position, see the globe view (requires WebGL).

§ Visibility from observer

Set your observer location to see the next 7 days of passes ≥ 10°. The values pass through the URL so the page stays shareable.

No JS? Fill the form by hand. The geolocation button needs JavaScript.

§ Radio — SatNOGS DB

ModeDescriptionDownlinkUplink
FM S-band telemetry 2.246 GHz

1 transmitter · refreshed weekly from db.satnogs.org